Location: Sungai Bunut
(2.6333°N, 113.7333°E)
Time: 04:02:20
(UTC+00:00)

Vanguard 2 Rocket - Pass Details

Date: 06 December 2023
Orbit: 555 x 3309 km, 32.9° (Epoch: 04 March)

Event Time Altitude Azimuth Distance (km) Brightness Sun altitude
Rises 12:50:23 0° 312° (NW) 7,117 11.7 -36.4°
Reaches altitude 10° 12:55:56 10° 317° (NW) 5,854 11.1 -37.6°
Enters shadow 13:07:53 40° 350° (N) 3,188 9.3 -40.3°
